THOR ABLESTAR DEB

Satellite information

Favourite Embed

Satellite Type and Status

DEBRISIN ORBIT

Key statistics

Satellite THOR ABLESTAR DEB at a glance.

Uptime

23447

Days in orbit

Revolutions

≈ 12.7

Per day

Orbit

LEO

Low Earth Orbit

Inclination

67.2

Latest

Satellite identification and parameters

Extended collection of information and parameters for THOR ABLESTAR DEB.

Object identification

Identified? True

Debris? True

Object name: THOR ABLESTAR DEB

International designator: 1961-015HL

Object number (NORAD): 659

Object ID (CCSDS): 659

Country: UNITED STATES OF AMERICA (US)

Current information (Y/N): Y

RCS size: SMALL

Orbital parameters

Period: 113.689 minutes

Inclination: 67.1613 deg

SMA: 7773.881 km

Apoapsis: 1845.599 km

Periapsis: 945.894 km

RAAN: 291.9626 deg

Eccentricy: 0.05786716

Argument of periapsis: 105.521 deg

Mean anomaly: 11.0716 deg

Mean motion: 12.66618767 rev/day

Mean motion (dot): 0.00000113 rev/day2

B* drag term: 0.00044788165 1/REarth

Two-line elements (TLE)

Creation date: Sept. 7, 2025, 3:09 a.m.

Reference frame: TEME

Reference center: EARTH

Epoch: Sept. 6, 2025, noon UTC

TLE line 0: 0 THOR ABLESTAR DEB

TLE line 1: 1 00659U 61015HL 25249.50001852 .00000113 00000-0 44788-3 0 9995

TLE line 2: 2 00659 67.1613 291.9626 0578672 105.5210 11.0716 12.66618767955094

Live tracking on map

Real-time ground track for satellite THOR ABLESTAR DEB.

In-orbit conjunctions

A list of the most updated potential collisions computed for object THOR ABLESTAR DEB.

Target Orbit TCA Probability of collision Miss distance Type
COSMOS 1308 LEO 2024-12-09 03:06:26 0.0002996892 278.0 (m) PAYLOAD

Associated space launch

THOR ABLESTAR DEB was lifted into orbit during the mission ‘Thor DM-21 Ablestar | Transit 4A & Injun-1 & Solrad 3’, on board a Thor DM-21 Ablestar space rocket.

The launch took place on June 29, 1961, 4:23 a.m. from Space Launch Complex 17B.

For more information about the launch, click the button.

Launch to space Thor DM-21 Ablestar | Transit 4A & Injun-1 & Solrad 3
Thor DM-21 Ablestar | Transit 4A & Injun-1 & Solrad 3

Agency: N/A

Status: Launch Successful

Launch date: June 29, 1961, 4:23 a.m. UTC

Rocket: Thor DM-21 Ablestar

Launch pad: Space Launch Complex 17B

Location: Cape Canaveral SFS, FL, USA

...

Latest news about this satellite

There are no fresh news available about this satellite. Check back as we update our databases every day.


Newsletter sign-up

Weekly statistics, charts and insights to help you stay on top of the space industry.